Terminal Aerodrome Forecast
Issued by NWS

Home | Current Version | Previous Version | Text Only | Print | Product List | Glossary On
Versions: 1 2 3 4 5 6 7 8 9 10 11 12 13 14 15 16 17 18 19 20
000
FTUS44 KTSA 240700 AAA
TAFRVS
TAF AMD
KRVS 240700Z 2407/2506 20006KT P6SM -RA OVC090
      TEMPO 2407/2410 3SM TSRA BKN030CB
     FM241000 17010KT 3SM TSRA OVC007CB
     FM241800 17010KT 5SM RA OVC015
     FM250000 17008KT P6SM BKN025 PROB30 2500/2506 6SM -RA BKN015=

USA.gov is the U.S. government's official web portal to all federal, state and local government web resources and services.